Погода Троицкое

Погода Троицкое : погода сейчас, прогноз погоды и архив. Всё, что Вы хотите узнать о погоде Троицкое!

Хотите узнать прогноз погоды Троицкое? Тогда Вам сюда: Погода Троицкое

Поиск расширенной информации на нашем сайте:

Другие новости

Новости СМИ2

Главная страница сайта

Новости сайта

03.07.2017

Напоминаем, что на нашем специализированном сайте Метеоцентр.Азия вы можете получить высокодетализированные автоматические прогнозы погоды по пунктам России, СНГ и мира в авиационном формате (включающие направление и скорость ветра, видимость, явления погоды, количество и форму облачности, нижнюю и верхнюю границу облачности).


Погода Троицкое - сегодня

Время (UTC), дата Ветер
(°,м/с) 
Видим.   Явления Облачность Т
(°С)
Тd
(°С)
f(%) Тe
(°С)
Pmin
(гПа)
dP
(гПа)
Po
(мм)
O2
(г/м3)
Тmin Tmax R s Состояние
почвы
09 22.11.17 250 (З) 4000 м  слаб. снег  10/0 средняя 
[As op]
-7.6 -9.1 89 -7  1005.3  2.7  751  312    -6.3     
12 22.11.17 210 (ЮЗ) 4000 м  слаб. снег  10/0 средняя 
[As op]
-8.9 -10.5 88 -13  1006.7  1.3  752  314           
15 22.11.17 200 (Ю) 4000 м  слаб. снег  10/0 средняя 
[As op]
-9.6 -11.6 85 -14  1007.6  0.9  752  315           
18 22.11.17 200 (Ю) 4000 м  {снег}  10/0 средняя 
[As op]
-10 -12 85 -13  1007.7  753  316           
21 22.11.17 200 (Ю) 10 км  {снег}  6/0 средняя 
[Ac As]
-13.4 -15.6 83 -18  1008.2  0.5  753  320  -13.6    19  равномерный
сухой снег
100% 
00 23.11.17 210 (ЮЗ) 3-12{12}  20000 м  {снег}  3/0 верхняя 
[Ci fib]
-13.3 -16.5 77 -17  1009  0.8  753  321           
03 23.11.17 250 (З) 2{11}  20000 м    ясно 
-11.2 -16.8 63 -13  1008.5  753  318           
06 23.11.17 250 (З) 20000 м    8/3 600 м кучево-дожд., верхняя 
[Cb cap|Ci sp]
-10.9 -16.5 63 -11  1008.8  0.3  753  318           
09 23.11.17 тихо ()   20000 м    10/0 верхняя 
[Ci sp]
-15.2 -17.3 84 -15  1010.3  1.3  754  323    -9.8       
12 23.11.17 190 (Ю) 10 км  слаб. ливневой снег  10/10 600 м кучево-дожд. 
[Cb cap]
-13.9 -16.1 83 -14  1009.9  -0.3  754  322           
15 23.11.17 190 (Ю) 4000 м  слаб. ливневой снег  10/10 600 м кучево-дожд. 
[Cb cap]
-15.7 -17.8 84 -18  1009.7  -0.2  754  324           
18 23.11.17 210 (ЮЗ) 4000 м  слаб. ливневой снег  10/10 600 м кучево-дожд. 
[Cb cap]
-16.5 -18.7 83 -19  1009.3  -0.4  754  325           
21 23.11.17 190 (Ю) 10 км  слаб. ливневой снег  10/10 600 м кучево-дожд. 
[Cb cap]
-17.3 -19.4 84 -20  1008.9  -0.4  753  326  -18.1    20  равномерный
сухой снег
100% 
00 24.11.17 200 (Ю) 20000 м  {ливн. осадки}  8/8 600 м 
[Sc]
-16.7 -19.3 80 -21  1009.2  0.2  754  325  -18.3         
03 24.11.17 210 (ЮЗ) 20000 м    3/3 600 м 
[Sc]
-15.7 -21.2 63 -21  1009  -0.2  753  324           
06 24.11.17 200 (Ю) 5{11}  20000 м    4/0 верхняя 
[Ci fib]
-14.8 -21.2 58 -20  1009.6  0.7  754  323           
09 24.11.17 200 (Ю) 7-10{11}  20000 м    3/3 600 м 
[Sc diur, vesp]
-17.3 -22.4 64 -25  1011.7  755  327    -14.5  0.0     
12 24.11.17 200 (Ю) 6{12}  20000 м    ясно 
-18.1 -23.9 60 -25  1012  0.3  756  328           
15 24.11.17 210 (ЮЗ) 6{11}  20000 м    ясно 
-19.6 -24.8 63 -27  1011.9  -0.2  756  330           
18 24.11.17 210 (ЮЗ) 6-11{12}  20000 м    ясно 
-20.5 -25.9 62 -28  1012.2  0.4  756  331           
21 24.11.17 210 (ЮЗ) 6{12}  20000 м    ясно 
-21 -26.7 60 -28  1012.7  0.5  756  332  -21.1      18  равномерный
сухой снег
100% 
00 25.11.17 210 (ЮЗ) 6-12{12}  20000 м    ясно 
-20.4 -26.8 57 -28  1013.7  0.5  757  331  -21.4         
03 25.11.17 230 (ЮЗ) 7-13{14}  20000 м    ясно 
-16.3 -26.1 43 -23  1013.7  0.1  757  326           
06 25.11.17 220 (ЮЗ) 6-11{15}  20000 м    3/0 верхняя 
[Ci fib]
-15.5 -24.4 46 -22  1013.2  -0.5  757  325           
09 25.11.17 220 (ЮЗ) 4{12}  20000 м    ясно 
-17.5 -23.5 59 -23  1014.4  1.1  757  328    -15.3       
Время (UTC), дата Ветер
(°,м/с) 
Видим.   Явления Облачность Т
(°С)
Тd
(°С)
f(%) Тe
(°С)
Pmin
(гПа)
dP
(гПа)
Po
(мм)
O2
(г/м3)
Тmin Tmax R s Состояние
почвы

Для получения пояснительной информации подведите курсор к названию столбца.

ПОГОДА Троицкое - архив

Всё, что Вы хотите узнать о погоде Троицкое - удобно и подробно!

Выберите нужную дату (начиная с 1 января 2015* года) и нажмите кнопку "Найти".
Будут отображены архивные сводки погоды по пункту Троицкое, начиная с указанной даты.


Отображать данные в формате CSV (для использования в таблицах Excel)


Внимание! Наш архив погоды предназначен исключительно для личного некоммерческого использования в познавательных целях. Если Вам необходимы официальные справки о состоянии погоды (для производственных, юридических, коммерческих и т.п. целей), обращайтесь в органы Росгидромета.

*Примечание: данная дата относится к архиву по метеостанциям СССР (Россия, СНГ, Балтия).
Архив по метеостанциям Зарубежной Европы и Азии (кроме Китая) хранится 10 дней, по другим регионам земного шара (Китай, Африка, Америка, Австралия, Океания) - 1 день.

Троицкое - район местоположения метеостанции


Название, широта, долгота, высота метеостанции:
Троицкое 49.4°ш. 136.6°д. 33 м над ур. моря [Российская Федерация]

Дополнительная информация

В oтличие oт бoльшинства пoгoдных сайтoв мы публикуем пoдрoбную метеoинфoрмацию в детальнoм прoфессиoнальнoм фoрмате.

Характеристики температуры и влажнoсти вoздуха измеряются на высoте 2 м в тени вдали oт зданий и деревьев.
Скoрoсть ветра измеряется на высoте 10 м (на урoвне рoста челoвека скoрoсть ветра ниже в 1.5-2 раза). Если метеoстанция нахoдится в гoрoде или в лесу, тo скoрoсть ветра занижена на 2-4 м/с пo сравнению с oткрытым местoм. Скoрoсть ветра над акватoриями крупных рек и oзёр, а также на вершинах хoлмoв на 2-5 м/с выше, чем в oбычных услoвиях.
Атмoсфернoе давление в разных тoчках местнoсти мoжет значительнo oтличаться oт давления на метеoстанции, в зависимoсти oт услoвий рельефа (при пoдъёме на 10 м давление пoнижается примернo на 1 мм рт.ст.).